Volver al catálogo

CZ-6A DEB

ActivoSSO
NORAD 54439·DEBRIS·🇨🇳 China

Lanzado Nov 11, 2022 desde Taiyuan Satellite Launch Center

Loading…

Próximos Pases (próximas 24 horas)

TLE

ActualizadoSource: Space-Track

Época: Sep 14, 2026, 07:19 UTC

1 54439U 22151FP  26257.30555526 -.00000170  00000-0 -11062-3 0  9992
2 54439  99.0376 202.6490 0201554 302.9677  55.2239 13.77040634192648

Sigue CZ-6A DEB en tiempo real con AllMySat

Download on the App Store